This demonstration page uses our WeatherBlox Daily Observations layout. Learn more.

Left ArrowRight Arrow

Hourly Observations for May 27, 2015

Temp ( °F °C ) Dew Point ( °F °C ) Humidity (%) Winds ( mph kmh ) Pressure ( in mb ) Visibility ( mi km ) Precip ( " mm )
12:16 am 00:16 Clear 68 20 54 12 60 60 SSW 6 9 30 1016 10 16.0934 N/A
12:36 am 00:36 Clear 66 19 55 13 68 68 SSW 6 9 30 1016 10 16.0934 N/A
12:56 am 00:56 Clear 66 19 55 13 68 68 SSW 5 7 30 1016 10 16.0934 N/A
1:16 am 01:16 Clear 64 18 57 14 78 78 S 5 7 30 1016 10 16.0934 N/A
1:36 am 01:36 Clear 66 19 57 14 73 73 SSW 6 9 30 1016 10 16.0934 N/A
1:57 am 01:57 Clear 66 19 57 14 73 73 SSW 8 13 30 1016 10 16.0934 N/A
2:16 am 02:16 Clear 66 19 57 14 73 73 SSW 8 13 30.03 1017 10 16.0934 N/A
2:36 am 02:36 Clear 64 18 57 14 78 78 SSW 7 11 30 1016 10 16.0934 N/A
2:56 am 02:56 Clear 64 18 61 16 88 88 SSW 7 11 30 1016 10 16.0934 N/A
3:16 am 03:16 Clear 64 18 61 16 88 88 SSW 7 11 30 1016 10 16.0934 N/A
3:37 am 03:37 Clear 64 18 63 17 94 94 SSW 6 9 30 1016 10 16.0934 N/A
3:56 am 03:56 Clear 63 17 63 17 100 100 S 6 9 30 1016 10 16.0934 N/A
4:16 am 04:16 Clear 63 17 N/A N/A S 7 11 30 1016 10 16.0934 N/A
4:36 am 04:36 Clear 63 17 N/A N/A S 7 11 30.03 1017 10 16.0934 N/A
4:56 am 04:56 Clear 63 17 N/A N/A S 8 13 30.03 1017 10 16.0934 N/A
5:16 am 05:16 Clear 63 17 N/A N/A S 8 13 30.03 1017 10 16.0934 N/A
5:36 am 05:36 Clear 63 17 N/A N/A SSW 8 13 30.03 1017 10 16.0934 N/A
5:56 am 05:56 Clear 63 17 N/A N/A SSW 8 13 30.06 1018 10 16.0934 N/A
6:16 am 06:16 Clear 61 16 N/A N/A SSW 7 11 30.06 1018 10 16.0934 N/A
6:36 am 06:36 Sunny 61 16 N/A N/A S 7 11 30.06 1018 7 11.26538 N/A
6:56 am 06:56 Sunny 61 16 N/A N/A S 7 11 30.06 1018 7 11.26538 N/A
7:16 am 07:16 Sunny 63 17 N/A N/A S 7 11 30.06 1018 7 11.26538 N/A
7:36 am 07:36 Sunny 63 17 N/A N/A S 7 11 30.06 1018 7 11.26538 N/A
7:56 am 07:56 Sunny 64 18 N/A N/A SSW 8 13 30.06 1018 7 11.26538 N/A
8:16 am 08:16 Sunny 66 19 N/A N/A SSW 9 15 30.06 1018 10 16.0934 N/A
8:36 am 08:36 Sunny 68 20 N/A N/A SSW 10 17 30.06 1018 10 16.0934 N/A
8:56 am 08:56 Sunny 68 20 68 20 100 100 SSW 12 19 30.09 1019 10 16.0934 N/A
9:16 am 09:16 Sunny 70 21 64 18 83 83 SW 12 19 30.09 1019 10 16.0934 N/A
9:36 am 09:36 Sunny 72 22 63 17 73 73 SW 13 20 30.06 1018 10 16.0934 N/A
9:56 am 09:56 Sunny 72 22 61 16 69 69 SW 16 26 30.06 1018 10 16.0934 N/A
10:17 am 10:17 Sunny 73 23 61 16 65 65 SW 14 22 30.06 1018 10 16.0934 N/A
10:36 am 10:36 Sunny 75 24 59 15 57 57 SW 15 24 30.03 1017 10 16.0934 N/A
10:56 am 10:56 Sunny 75 24 57 14 54 54 SW 12 19 30.03 1017 10 16.0934 N/A
11:16 am 11:16 Sunny 77 25 57 14 51 51 SW 14 22 30.03 1017 10 16.0934 N/A
11:36 am 11:36 Sunny 77 25 55 13 47 47 SW 13 20 30.03 1017 10 16.0934 N/A
11:57 am 11:57 Sunny 79 26 54 12 42 42 WSW 14 22 30.03 1017 10 16.0934 N/A
12:16 pm 12:16 Sunny 79 26 55 13 45 45 SSW 13 20 30.03 1017 10 16.0934 N/A
12:37 pm 12:37 Sunny 79 26 55 13 45 45 S 15 24 30.03 1017 10 16.0934 N/A
12:56 pm 12:56 Sunny 79 26 55 13 45 45 SSW 13 20 30.03 1017 10 16.0934 N/A
1:16 pm 13:16 Partly Cloudy 79 26 54 12 42 42 SSW 12 19 30.03 1017 10 16.0934 N/A
1:36 pm 13:36 Partly Cloudy 79 26 52 11 39 39 SW 13 20 30.03 1017 10 16.0934 N/A
1:56 pm 13:56 Sunny 81 27 50 10 34 34 SW 18 30 30.03 1017 10 16.0934 N/A
2:16 pm 14:16 Sunny 81 27 48 9 32 32 SW 18 30 30.03 1017 10 16.0934 N/A
2:36 pm 14:36 Sunny 81 27 50 10 34 34 SSW 10 17 30 1016 10 16.0934 N/A
2:56 pm 14:56 Sunny 82 28 50 10 32 32 SSW 9 15 30 1016 10 16.0934 N/A
3:16 pm 15:16 Sunny 82 28 50 10 32 32 SW 14 22 30 1016 10 16.0934 N/A
3:36 pm 15:36 Sunny 79 26 50 10 37 37 SW 15 24 30.03 1017 10 16.0934 N/A
3:56 pm 15:56 Sunny 79 26 50 10 37 37 SSW 13 20 30.03 1017 10 16.0934 N/A
4:16 pm 16:16 Partly Cloudy 81 27 52 11 37 37 SSW 12 19 30 1016 10 16.0934 N/A
4:36 pm 16:36 Partly Cloudy 79 26 52 11 39 39 SSW 12 19 30 1016 10 16.0934 N/A
4:56 pm 16:56 Partly Cloudy 79 26 52 11 39 39 SSW 14 22 30 1016 10 16.0934 N/A
5:16 pm 17:16 Partly Cloudy 81 27 52 11 37 37 SW 12 19 30 1016 10 16.0934 N/A
5:36 pm 17:36 Partly Cloudy 79 26 50 10 37 37 WSW 13 20 30.03 1017 10 16.0934 N/A
5:56 pm 17:56 Partly Cloudy 79 26 50 10 37 37 SW 13 20 30.03 1017 10 16.0934 N/A
6:16 pm 18:16 Partly Cloudy 79 26 48 9 34 34 SW 14 22 30.03 1017 10 16.0934 N/A
6:36 pm 18:36 Sunny 79 26 48 9 34 34 SW 12 19 30.03 1017 10 16.0934 N/A
6:56 pm 18:56 Sunny 79 26 46 8 32 32 SW 13 20 30 1016 10 16.0934 N/A
7:16 pm 19:16 Sunny 79 26 48 9 34 34 SW 8 13 30.03 1017 10 16.0934 N/A
7:36 pm 19:36 Partly Cloudy 77 25 46 8 34 34 WSW 14 22 30.03 1017 10 16.0934 N/A
7:56 pm 19:56 Partly Cloudy 73 23 54 12 50 50 WNW 13 20 30.03 1017 10 16.0934 N/A
8:17 pm 20:17 Partly Cloudy 72 22 59 15 65 65 WNW 10 17 30.06 1018 10 16.0934 N/A
8:36 pm 20:36 Partly Cloudy 72 22 61 16 69 69 W 6 9 30.06 1018 10 16.0934 N/A
8:56 pm 20:56 Partly Cloudy 70 21 61 16 73 73 W 8 13 30.09 1019 10 16.0934 N/A
9:16 pm 21:16 Mostly Cloudy 70 21 61 16 73 73 W 7 11 30.09 1019 10 16.0934 N/A
9:36 pm 21:36 Mostly Cloudy 70 21 59 15 69 69 W 6 9 30.09 1019 10 16.0934 N/A
9:56 pm 21:56 Mostly Cloudy 70 21 61 16 73 73 WSW 5 7 30.09 1019 10 16.0934 N/A
10:16 pm 22:16 Partly Cloudy 70 21 61 16 73 73 WSW 3 6 30.09 1019 10 16.0934 N/A
10:36 pm 22:36 Partly Cloudy 70 21 59 15 69 69 SW 6 9 30.12 1020 10 16.0934 N/A
10:56 pm 22:56 Partly Cloudy 70 21 59 15 69 69 SW 5 7 30.12 1020 10 16.0934 N/A
11:16 pm 23:16 Partly Cloudy 68 20 59 15 73 73 SW 3 6 30.12 1020 10 16.0934 N/A
11:36 pm 23:36 Partly Cloudy 70 21 59 15 69 69 SSW 3 6 30.12 1020 10 16.0934 N/A
11:56 pm 23:56 Partly Cloudy 68 20 61 16 78 78 WSW 5 7 30.12 1020 10 16.0934 N/A

Powered by AerisWeather